GW0483 Weather Reports


Display with metric or nautical units.
time (UTC)temp
F
wind
direction
speed
MPH
gust
MPH
rain 1hr
in
rain 24hr
in
rain mn
in
humidity
%
barometer
mb
20260901070109 78 50 1.0 1.0 0.00 0.00 0.00 84 1015.0
20260901065602 78 93 1.0 1.0 0.00 0.00 0.00 83 1015.1
20260901065057 78 62 2.0 2.0 0.00 0.00 0.00 83 1014.8
20260901064554 78 199 3.0 3.0 0.00 0.00 0.00 83 1014.7
20260901064050 78 107 2.0 2.0 0.00 0.00 0.00 82 1014.9
20260901063547 79 145 1.0 2.0 0.00 0.00 0.00 82 1015.0
20260901063043 79 130 2.0 2.0 0.00 0.00 0.00 81 1015.0
20260901062538 79 57 1.0 1.0 0.00 0.00 0.00 81 1014.8
20260901062034 79 75 2.0 2.0 0.00 0.00 0.00 80 1015.0
20260901061531 79 163 3.0 3.0 0.00 0.00 0.00 80 1015.0
20260901061031 79 123 2.0 3.0 0.00 0.00 0.00 80 1014.7
20260901060525 79 114 1.0 1.0 0.00 0.00 0.00 79 1014.9
20260901060020 80 98 1.0 2.0 0.00 0.00 0.00 78 1014.9
20260901055515 80 92 1.0 2.0 0.00 0.00 0.00 78 1014.6
20260901055012 80 121 2.0 2.0 0.00 0.00 0.00 77 1014.7
20260901054509 80 151 3.0 3.0 0.00 0.00 0.00 77 1014.7
20260901054005 80 108 1.0 2.0 0.00 0.00 0.00 77 1014.6
20260901053500 80 69 3.0 5.0 0.00 0.00 0.00 77 1014.7
20260901052956 80 71 1.0 2.0 0.00 0.00 0.00 77 1014.4
20260901052452 81 83 2.0 2.0 0.00 0.00 0.00 76 1014.6
20260901051950 81 136 2.0 2.0 0.00 0.00 0.00 76 1014.6
20260901051446 81 92 2.0 2.0 0.00 0.00 0.00 75 1014.6
20260901050945 81 101 2.0 2.0 0.00 0.00 0.00 75 1014.7
20260901050440 82 141 2.0 2.0 0.00 0.00 0.00 74 1014.7
20260901045935 82 107 3.0 3.0 0.00 0.00 0.00 74 1014.3
20260901045430 82 193 4.0 6.0 0.00 0.00 0.00 73 1014.7
20260901044925 82 99 3.0 3.0 0.00 0.00 0.00 72 1014.6
20260901044421 82 167 3.0 3.0 0.00 0.00 0.00 72 1014.7
20260901043916 82 140 2.0 5.0 0.00 0.00 0.00 71 1014.4
20260901043412 82 59 2.0 3.0 0.00 0.00 0.00 70 1014.4
20260901042906 83 65 2.0 3.0 0.00 0.00 0.00 69 1014.2
20260901042401 83 113 2.0 2.0 0.00 0.00 0.00 69 1014.3
20260901041857 83 152 3.0 3.0 0.00 0.00 0.00 69 1014.5
20260901041351 83 113 3.0 5.0 0.00 0.00 0.00 68 1014.4
20260901040846 83 124 3.0 5.0 0.00 0.00 0.00 67 1014.5
20260901040345 84 109 3.0 5.0 0.00 0.00 0.00 67 1014.4
20260901035844 84 136 3.0 3.0 0.00 0.00 0.00 67 1014.4
20260901035343 84 87 2.0 2.0 0.00 0.00 0.00 66 1014.2
20260901034842 84 202 3.0 5.0 0.00 0.00 0.00 66 1014.3
20260901034337 84 159 3.0 3.0 0.00 0.00 0.00 66 1014.6
20260901033837 84 142 1.0 2.0 0.00 0.00 0.00 66 1014.3
20260901033336 85 146 3.0 5.0 0.00 0.00 0.00 66 1014.2
20260901032835 85 151 3.0 3.0 0.00 0.00 0.00 65 1014.1
20260901032334 85 154 2.0 2.0 0.00 0.00 0.00 65 1014.1
20260901031830 85 125 2.0 2.0 0.00 0.00 0.00 65 1014.0
20260901031326 85 94 2.0 2.0 0.00 0.00 0.00 65 1014.0
20260901030825 86 111 2.0 2.0 0.00 0.00 0.00 64 1014.1
20260901030321 86 115 1.0 1.0 0.00 0.00 0.00 64 1013.8
20260901025820 86 186 2.0 3.0 0.00 0.00 0.00 64 1013.7
20260901025315 86 133 1.0 2.0 0.00 0.00 0.00 64 1013.5
20260901024810 86 87 1.0 2.0 0.00 0.00 0.00 64 1013.6
20260901024309 86 76 1.0 1.0 0.00 0.00 0.00 64 1013.2
20260901023807 86 70 0.0 1.0 0.00 0.00 0.00 63 1013.4
20260901023302 87 91 1.0 1.0 0.00 0.00 0.00 63 1013.3
20260901022757 87 100 2.0 2.0 0.00 0.00 0.00 63 1013.3
20260901022253 87 85 1.0 1.0 0.00 0.00 0.00 62 1013.1
20260901021748 87 114 3.0 5.0 0.00 0.00 0.00 62 1012.9
20260901021244 87 100 1.0 1.0 0.00 0.00 0.00 62 1013.1
20260901020739 87 84 2.0 3.0 0.00 0.00 0.00 61 1013.0
20260901020234 88 155 2.0 3.0 0.00 0.00 0.00 61 1012.8
20260901015729 88 151 3.0 3.0 0.00 0.00 0.00 61 1012.8
20260901015225 88 149 2.0 3.0 0.00 0.00 0.00 61 1012.9
20260901014724 88 109 1.0 2.0 0.00 0.00 0.00 60 1012.8
20260901014220 88 135 1.0 2.0 0.00 0.00 0.00 60 1012.5
20260901013715 88 121 2.0 2.0 0.00 0.00 0.00 59 1012.6
20260901013211 89 119 2.0 2.0 0.00 0.00 0.00 58 1012.8
20260901012707 89 144 3.0 3.0 0.00 0.00 0.00 57 1012.4
20260901012206 89 131 3.0 3.0 0.00 0.00 0.00 57 1012.6
20260901011702 89 145 6.0 7.0 0.00 0.00 0.00 55 1012.5
20260901011202 88 136 3.0 5.0 0.00 0.00 0.00 54 1012.4
20260901010656 89 136 1.0 3.0 0.00 0.00 0.00 54 1012.3
20260901010151 89 118 1.0 2.0 0.00 0.00 0.00 53 1012.2
20260901005650 89 75 0.0 0.0 0.00 0.00 0.00 52 1012.2
20260901005146 89 86 2.0 2.0 0.00 0.00 0.00 52 1012.2
20260901004645 90 87 1.0 1.0 0.00 0.00 0.00 51 1012.3
20260901004140 91 105 1.0 1.0 0.00 0.00 0.00 51 1012.2
20260901003635 91 65 0.0 1.0 0.00 0.00 0.00 50 1012.3
20260901003133 91 95 1.0 1.0 0.00 0.00 0.00 49 1012.0
20260901002627 92 81 1.0 1.0 0.00 0.00 0.00 49 1012.2
20260901002122 92 108 2.0 2.0 0.00 0.00 0.00 48 1012.0
20260901001617 92 165 2.0 3.0 0.00 0.00 0.00 47 1012.3
20260901001112 93 146 3.0 3.0 0.00 0.00 0.00 47 1011.8
20260901000607 93 135 3.0 5.0 0.00 0.00 0.00 46 1011.8
20260901000058 94 151 2.0 2.0 0.00 0.00 0.00 46 1011.8
20260831235551 95 86 2.0 2.0 0.00 0.00 0.00 45 1011.8
20260831235046 95 99 2.0 3.0 0.00 0.00 0.00 45 1011.9
20260831234540 95 73 2.0 2.0 0.00 0.00 0.00 44 1012.1
20260831234037 95 94 1.0 2.0 0.00 0.00 0.00 43 1012.0
20260831233531 95 113 1.0 2.0 0.00 0.00 0.00 44 1011.9
20260831233027 95 132 2.0 3.0 0.00 0.00 0.00 43 1011.9
20260831232522 95 157 3.0 3.0 0.00 0.00 0.00 43 1011.8
20260831232018 95 129 3.0 5.0 0.00 0.00 0.00 44 1011.9
20260831231514 95 173 3.0 3.0 0.00 0.00 0.00 43 1011.8
20260831231009 96 161 5.0 6.0 0.00 0.00 0.00 42 1012.0
20260831230504 97 118 2.0 2.0 0.00 0.00 0.00 44 1011.9
20260831225959 95 27 3.0 3.0 0.00 0.00 0.00 44 1012.2
20260831225455 96 124 3.0 5.0 0.00 0.00 0.00 45 1012.0
20260831224954 96 139 4.0 5.0 0.00 0.00 0.00 44 1012.0
20260831224449 97 89 4.0 6.0 0.00 0.00 0.00 44 1011.9
20260831223944 97 141 2.0 2.0 0.00 0.00 0.00 44 1012.1
20260831223439 97 169 2.0 2.0 0.00 0.00 0.00 44 1012.0
20260831222936 97 82 1.0 1.0 0.00 0.00 0.00 45 1012.0
20260831222431 95 138 2.0 2.0 0.00 0.00 0.00 46 1012.3
20260831221926 96 203 3.0 5.0 0.00 0.00 0.00 45 1012.2
20260831221422 95 158 3.0 3.0 0.00 0.00 0.00 47 1012.4
20260831220917 93 144 2.0 3.0 0.00 0.00 0.00 49 1012.5
20260831220413 93 93 1.0 1.0 0.00 0.00 0.00 49 1012.6
20260831215908 94 153 3.0 3.0 0.00 0.00 0.00 49 1012.8
20260831215403 96 137 3.0 3.0 0.00 0.00 0.00 46 1012.5
20260831214859 98 147 3.0 3.0 0.00 0.00 0.00 42 1012.5
20260831214356 98 148 3.0 5.0 0.00 0.00 0.00 42 1012.9
20260831213852 97 141 1.0 2.0 0.00 0.00 0.00 43 1012.3
20260831213348 98 126 4.0 5.0 0.00 0.00 0.00 44 1012.6
20260831212843 97 158 3.0 3.0 0.00 0.00 0.00 46 1012.6
20260831212340 97 141 3.0 5.0 0.00 0.00 0.00 45 1012.9
20260831211838 96 135 1.0 2.0 0.00 0.00 0.00 46 1012.8
20260831211334 96 157 2.0 2.0 0.00 0.00 0.00 45 1013.0
20260831210833 96 131 3.0 5.0 0.00 0.00 0.00 45 1013.0
20260831210329 95 232 3.0 6.0 0.00 0.00 0.00 47 1013.2
20260831205829 95 247 4.0 5.0 0.00 0.00 0.00 47 1013.2
20260831205325 93 50 3.0 5.0 0.00 0.00 0.00 50 1013.2
20260831204820 95 151 3.0 5.0 0.00 0.00 0.00 48 1013.4
20260831204319 97 85 7.0 8.0 0.00 0.00 0.00 46 1013.4
20260831203818 98 114 0.0 1.0 0.00 0.00 0.00 45 1013.7
20260831203313 96 166 5.0 7.0 0.00 0.00 0.00 46 1013.8
20260831202811 96 111 6.0 8.0 0.00 0.00 0.00 47 1013.7
20260831202307 97 144 5.0 8.0 0.00 0.00 0.00 47 1013.7
20260831201806 95 200 3.0 5.0 0.00 0.00 0.00 49 1013.8
20260831201305 92 146 3.0 3.0 0.00 0.00 0.00 52 1013.9
20260831200801 94 156 3.0 3.0 0.00 0.00 0.00 50 1014.2
20260831200256 97 141 4.0 5.0 0.00 0.00 0.00 48 1014.1
20260831195751 96 130 7.0 8.0 0.00 0.00 0.00 48 1014.3
20260831195247 95 129 3.0 5.0 0.00 0.00 0.00 49 1014.4
20260831194741 95 137 2.0 2.0 0.00 0.00 0.00 52 1014.7
20260831194237 95 145 3.0 5.0 0.00 0.00 0.00 49 1014.5
20260831193730 96 109 4.0 5.0 0.00 0.00 0.00 49 1014.5
20260831193227 95 151 1.0 2.0 0.00 0.00 0.00 50 1014.7
20260831192722 94 149 4.0 5.0 0.00 0.00 0.00 53 1014.6
20260831192217 96 72 3.0 3.0 0.00 0.00 0.00 50 1014.8
20260831191713 95 147 3.0 3.0 0.00 0.00 0.00 51 1015.0
20260831191209 96 135 3.0 3.0 0.00 0.00 0.00 52 1014.9
20260831190704 95 153 5.0 7.0 0.00 0.00 0.00 52 1015.0
20260831190203 96 142 2.0 2.0 0.00 0.00 0.00 51 1015.1
20260831185658 95 165 3.0 3.0 0.00 0.00 0.00 51 1015.2
20260831185153 93 154 3.0 5.0 0.00 0.00 0.00 54 1015.2
20260831184647 95 138 3.0 3.0 0.00 0.00 0.00 53 1015.2
20260831184144 93 140 3.0 5.0 0.00 0.00 0.00 54 1015.4
20260831183643 95 172 3.0 3.0 0.00 0.00 0.00 51 1015.1
20260831183142 94 163 4.0 5.0 0.00 0.00 0.00 53 1015.2
20260831182641 93 153 4.0 6.0 0.00 0.00 0.00 52 1015.1
20260831182137 93 158 3.0 3.0 0.00 0.00 0.00 55 1015.4
20260831181632 93 63 1.0 2.0 0.00 0.00 0.00 54 1015.7
20260831181131 92 95 5.0 6.0 0.00 0.00 0.00 56 1015.5
20260831180627 90 209 3.0 3.0 0.00 0.00 0.00 58 1015.7
20260831180122 92 172 3.0 3.0 0.00 0.00 0.00 55 1015.8
20260831175616 93 155 2.0 2.0 0.00 0.00 0.00 56 1015.8
20260831175114 93 172 3.0 6.0 0.00 0.00 0.00 57 1015.8
20260831174613 92 149 3.0 3.0 0.00 0.00 0.00 58 1015.7
20260831174108 92 109 4.0 5.0 0.00 0.00 0.00 57 1015.9
20260831173606 90 354 2.0 2.0 0.00 0.00 0.00 60 1015.9
20260831173103 92 96 1.0 3.0 0.00 0.00 0.00 58 1015.8
20260831172603 91 137 2.0 3.0 0.00 0.00 0.00 57 1015.8
20260831172057 92 136 2.0 2.0 0.00 0.00 0.00 58 1015.8
20260831171553 92 137 3.0 3.0 0.00 0.00 0.00 57 1016.0
20260831171050 91 136 4.0 5.0 0.00 0.00 0.00 60 1016.2
20260831170546 90 111 2.0 3.0 0.00 0.00 0.00 61 1016.2
20260831170044 89 82 1.0 2.0 0.00 0.00 0.00 65 1016.3
20260831165543 91 158 2.0 2.0 0.00 0.00 0.00 61 1016.3
20260831165040 91 155 3.0 3.0 0.00 0.00 0.00 64 1016.4
20260831164536 91 118 2.0 2.0 0.00 0.00 0.00 63 1016.4
20260831164031 91 131 3.0 3.0 0.00 0.00 0.00 62 1016.2
20260831163526 91 215 2.0 2.0 0.00 0.00 0.00 61 1016.2
20260831163021 89 151 3.0 5.0 0.00 0.00 0.00 66 1016.1
20260831162520 89 52 2.0 2.0 0.00 0.00 0.00 67 1016.3
20260831162018 88 155 4.0 5.0 0.00 0.00 0.00 68 1016.3
20260831161515 88 152 4.0 5.0 0.00 0.00 0.00 69 1016.4
20260831161011 88 359 2.0 2.0 0.00 0.00 0.00 68 1016.3
20260831160510 88 116 6.0 7.0 0.00 0.00 0.00 69 1016.3
20260831160006 87 176 3.0 5.0 0.00 0.00 0.00 70 1016.3
20260831155500 87 150 3.0 3.0 0.00 0.00 0.00 72 1016.1
20260831154955 87 142 3.0 5.0 0.00 0.00 0.00 73 1016.0
20260831154452 86 69 1.0 1.0 0.00 0.00 0.00 75 1016.0
20260831153950 86 147 3.0 3.0 0.00 0.00 0.00 75 1016.0
20260831153446 85 130 3.0 3.0 0.00 0.00 0.00 76 1016.0
20260831152943 85 268 5.0 7.0 0.00 0.00 0.00 76 1015.9
20260831152437 85 146 3.0 3.0 0.00 0.00 0.00 77 1016.2
20260831151933 84 154 6.0 7.0 0.00 0.00 0.00 78 1016.0
20260831151432 83 129 2.0 2.0 0.00 0.00 0.00 81 1016.0
20260831150927 83 151 3.0 3.0 0.00 0.00 0.00 81 1015.9
20260831150423 82 106 4.0 5.0 0.00 0.00 0.00 82 1016.0
20260831145922 84 122 3.0 5.0 0.00 0.00 0.00 81 1015.9
20260831145418 83 60 1.0 1.0 0.00 0.00 0.00 83 1016.0
20260831144914 82 164 3.0 3.0 0.00 0.00 0.00 83 1015.8
20260831144409 82 2 1.0 2.0 0.00 0.00 0.00 85 1015.8
20260831143904 81 143 3.0 5.0 0.00 0.00 0.00 86 1016.1
20260831143359 81 45 1.0 2.0 0.00 0.00 0.00 88 1015.8
20260831142854 80 198 3.0 3.0 0.00 0.00 0.00 90 1015.8
20260831142349 79 36 2.0 3.0 0.00 0.00 0.00 92 1016.0
20260831141844 79 191 3.0 3.0 0.00 0.00 0.00 92 1015.8
20260831141338 79 137 3.0 3.0 0.00 0.00 0.00 92 1015.8
20260831140834 79 72 1.0 2.0 0.00 0.00 0.00 92 1015.8
20260831140328 79 190 3.0 3.0 0.00 0.00 0.00 93 1015.4
20260831135826 79 161 4.0 5.0 0.00 0.00 0.00 94 1015.3
20260831135321 78 174 4.0 6.0 0.00 0.00 0.00 94 1015.5
20260831134817 78 137 2.0 2.0 0.00 0.00 0.00 95 1015.4
20260831134314 78 94 1.0 1.0 0.00 0.00 0.00 95 1015.4
20260831133812 78 119 2.0 2.0 0.00 0.00 0.00 95 1015.3
20260831133307 77 233 3.0 5.0 0.00 0.00 0.00 96 1015.5
20260831132802 78 123 2.0 2.0 0.00 0.00 0.00 96 1015.2
20260831132257 77 60 1.0 1.0 0.00 0.00 0.00 96 1015.2
20260831131756 77 61 0.0 0.0 0.00 0.00 0.00 96 1015.3
20260831131253 77 112 2.0 2.0 0.00 0.00 0.00 97 1015.2
20260831130748 77 59 1.0 1.0 0.00 0.00 0.00 97 1015.2
20260831130243 77 111 2.0 2.0 0.00 0.00 0.00 97 1015.2
20260831125742 76 166 2.0 2.0 0.00 0.00 0.00 97 1015.5
20260831125238 76 72 0.0 1.0 0.00 0.00 0.00 97 1015.1
20260831124732 76 84 0.0 1.0 0.00 0.00 0.00 97 1015.2
20260831124229 76 60 0.0 1.0 0.00 0.00 0.00 97 1015.1
20260831123728 76 73 0.0 1.0 0.00 0.00 0.00 97 1014.9
20260831123227 76 17 0.0 1.0 0.00 0.00 0.00 97 1015.0
20260831122721 76 56 0.0 1.0 0.00 0.00 0.00 97 1015.0
20260831122218 76 75 1.0 1.0 0.00 0.00 0.00 97 1015.0
20260831121717 76 92 1.0 2.0 0.00 0.00 0.00 97 1014.6
20260831121214 76 73 1.0 1.0 0.00 0.00 0.00 97 1014.6
20260831120709 76 74 0.0 1.0 0.00 0.00 0.00 97 1014.8
20260831120203 75 67 0.0 0.0 0.00 0.00 0.00 97 1014.5
20260831115659 75 90 2.0 2.0 0.00 0.00 0.00 97 1014.6
20260831115155 75 161 0.0 1.0 0.00 0.00 0.00 97 1014.8
20260831114654 76 67 1.0 1.0 0.00 0.00 0.00 97 1014.8
20260831114148 76 73 1.0 1.0 0.00 0.00 0.00 97 1014.6
20260831113648 76 197 1.0 2.0 0.00 0.00 0.00 97 1014.6
20260831113143 76 108 1.0 2.0 0.00 0.00 0.00 97 1014.6
20260831112642 76 59 1.0 1.0 0.00 0.00 0.00 97 1014.5
20260831112138 76 111 2.0 2.0 0.00 0.00 0.00 97 1014.7
20260831111634 76 52 0.0 1.0 0.00 0.00 0.00 96 1014.6
20260831111129 76 187 2.0 2.0 0.00 0.00 0.00 96 1014.5
20260831110625 76 142 1.0 2.0 0.00 0.00 0.00 97 1014.6
20260831110120 76 71 1.0 1.0 0.00 0.00 0.00 97 1014.7
20260831105619 76 106 2.0 2.0 0.00 0.00 0.00 96 1014.6
20260831105114 76 39 2.0 3.0 0.00 0.00 0.00 96 1014.7
20260831104610 76 88 1.0 1.0 0.00 0.00 0.00 96 1014.8
20260831104106 76 209 1.0 2.0 0.00 0.00 0.00 96 1014.7
20260831103601 76 64 0.0 1.0 0.00 0.00 0.00 96 1014.7
20260831103056 76 97 2.0 2.0 0.00 0.00 0.00 96 1014.8
20260831102550 76 83 1.0 1.0 0.00 0.00 0.00 96 1014.5
20260831102046 76 214 2.0 3.0 0.00 0.00 0.00 96 1014.6
20260831101540 76 111 2.0 3.0 0.00 0.00 0.00 96 1014.8
20260831101037 77 102 1.0 1.0 0.00 0.00 0.00 96 1014.6
20260831100532 77 71 1.0 1.0 0.00 0.00 0.00 96 1014.5
20260831100028 77 231 2.0 3.0 0.00 0.00 0.00 96 1014.7
20260831095526 77 120 3.0 3.0 0.00 0.00 0.00 95 1014.9
20260831095021 77 93 2.0 2.0 0.00 0.00 0.00 95 1014.5
20260831094518 77 154 2.0 2.0 0.00 0.00 0.00 95 1014.5
20260831094013 77 125 3.0 3.0 0.00 0.00 0.00 95 1014.6
20260831093513 77 118 2.0 3.0 0.00 0.00 0.00 95 1014.4
20260831093010 77 211 2.0 3.0 0.00 0.00 0.00 95 1014.5
20260831092505 77 89 1.0 1.0 0.00 0.00 0.00 95 1014.5
20260831092001 77 166 3.0 3.0 0.00 0.00 0.00 94 1014.6
20260831091455 77 105 2.0 2.0 0.00 0.00 0.00 94 1014.5
20260831090950 77 126 3.0 3.0 0.00 0.00 0.00 94 1014.7
20260831090447 77 136 3.0 3.0 0.00 0.00 0.00 94 1014.6
20260831085942 77 134 3.0 3.0 0.00 0.00 0.00 94 1014.5
20260831085438 77 105 3.0 3.0 0.00 0.00 0.00 94 1014.7
20260831084937 77 114 2.0 2.0 0.00 0.00 0.00 94 1014.6
20260831084433 77 164 3.0 5.0 0.00 0.00 0.00 94 1014.8
20260831083930 77 108 3.0 3.0 0.00 0.00 0.00 94 1014.6
20260831083424 77 93 1.0 2.0 0.00 0.00 0.00 94 1014.8
20260831082923 77 138 3.0 6.0 0.00 0.00 0.00 94 1014.8
20260831082418 77 176 3.0 3.0 0.00 0.00 0.00 94 1014.8
20260831081913 77 95 2.0 3.0 0.00 0.00 0.00 94 1014.8
20260831081409 77 129 3.0 3.0 0.00 0.00 0.00 94 1015.0
20260831080904 77 107 2.0 2.0 0.00 0.00 0.00 94 1014.9
20260831080400 77 265 3.0 3.0 0.00 0.00 0.00 94 1014.8
20260831075855 77 84 2.0 2.0 0.00 0.00 0.00 93 1014.9
20260831075350 77 194 1.0 1.0 0.00 0.00 0.00 93 1014.9
20260831074845 77 117 1.0 1.0 0.00 0.00 0.00 93 1015.0
20260831074344 77 65 1.0 2.0 0.00 0.00 0.00 93 1014.8
20260831073840 77 113 1.0 2.0 0.00 0.00 0.00 92 1014.8
20260831073339 77 73 1.0 1.0 0.00 0.00 0.00 92 1014.6
20260831072834 77 129 1.0 1.0 0.00 0.00 0.00 92 1014.6
20260831072330 77 93 1.0 2.0 0.00 0.00 0.00 91 1014.7
20260831071826 77 45 1.0 2.0 0.00 0.00 0.00 91 1014.8
20260831071325 77 173 2.0 2.0 0.00 0.00 0.00 91 1014.9
20260831070820 77 134 2.0 2.0 0.00 0.00 0.00 90 1014.6
20260831070319 77 94 1.0 1.0 0.00 0.00 0.00 90 1014.8